| time (UTC) | temp F | wind direction | speed MPH | gust MPH | rain 1hr in | rain 24hr in | rain mn in | humidity % | barometer mb |
| 20260507062107 | 65 | 166 | 1.0 | 4.0 | 0.00 | 0.00 | 0.00 | 67 | 1013.0 |
| 20260507061031 | 65 | 129 | 1.0 | 5.0 | 0.00 | 0.00 | 0.00 | 68 | 1012.8 |
| 20260507060032 | 64 | 168 | 1.0 | 4.0 | 0.00 | 0.00 | 0.00 | 69 | 1012.7 |
| 20260507055052 | 64 | 169 | 1.0 | 5.0 | 0.00 | 0.00 | 0.00 | 71 | 1012.8 |
| 20260507054023 | 63 | 158 | 1.0 | 6.0 | 0.00 | 0.00 | 0.00 | 74 | 1012.6 |
| 20260507053037 | 62 | 150 | 1.0 | 4.0 | 0.00 | 0.00 | 0.00 | 78 | 1012.5 |
| 20260507052023 | 62 | 131 | 0.0 | 3.0 | 0.00 | 0.00 | 0.00 | 81 | 1012.5 |
| 20260507051052 | 61 | 134 | 1.0 | 3.0 | 0.00 | 0.00 | 0.00 | 82 | 1012.3 |
| 20260507050024 | 60 | 119 | 0.0 | 1.0 | 0.00 | 0.00 | 0.00 | 84 | 1012.2 |
| 20260507045032 | 60 | 119 | 0.0 | 1.0 | 0.00 | 0.00 | 0.00 | 84 | 1012.2 |
| 20260507044023 | 60 | 196 | 0.0 | 1.0 | 0.00 | 0.00 | 0.00 | 84 | 1012.1 |
| 20260507043032 | 60 | 196 | 0.0 | 1.0 | 0.00 | 0.00 | 0.00 | 86 | 1011.9 |
| 20260507042043 | 59 | 197 | 0.0 | 1.0 | 0.00 | 0.00 | 0.00 | 87 | 1011.8 |
| 20260507041031 | 59 | 0.0 | 0.0 | 0.00 | 0.00 | 0.00 | 87 | 1011.8 | |
| 20260507040044 | 59 | 0.0 | 0.0 | 0.00 | 0.00 | 0.00 | 87 | 1011.7 | |
| 20260507035031 | 59 | 0.0 | 0.0 | 0.00 | 0.00 | 0.00 | 87 | 1011.6 | |
| 20260507034033 | 59 | 0.0 | 0.0 | 0.00 | 0.00 | 0.00 | 87 | 1011.5 | |
| 20260507033053 | 59 | 0.0 | 0.0 | 0.00 | 0.00 | 0.00 | 88 | 1011.4 | |
| 20260507032023 | 59 | 0.0 | 0.0 | 0.00 | 0.00 | 0.00 | 89 | 1011.4 | |
| 20260507031032 | 59 | 0.0 | 0.0 | 0.00 | 0.00 | 0.00 | 89 | 1011.4 | |
| 20260507030023 | 59 | 0.0 | 0.0 | 0.00 | 0.00 | 0.00 | 89 | 1011.5 | |
| 20260507025031 | 59 | 0.0 | 0.0 | 0.00 | 0.00 | 0.00 | 89 | 1011.4 | |
| 20260507024044 | 59 | 0.0 | 0.0 | 0.00 | 0.00 | 0.00 | 89 | 1011.3 | |
| 20260507023032 | 59 | 0.0 | 0.0 | 0.00 | 0.00 | 0.00 | 88 | 1011.4 | |
| 20260507022023 | 59 | 0.0 | 0.0 | 0.00 | 0.00 | 0.00 | 88 | 1011.5 | |
| 20260507021032 | 59 | 0.0 | 0.0 | 0.00 | 0.00 | 0.00 | 87 | 1011.4 | |
| 20260507020023 | 59 | 0.0 | 0.0 | 0.00 | 0.00 | 0.00 | 87 | 1011.5 | |
| 20260507015032 | 60 | 0.0 | 0.0 | 0.00 | 0.00 | 0.00 | 86 | 1011.5 | |
| 20260507014032 | 60 | 0.0 | 0.0 | 0.00 | 0.00 | 0.00 | 86 | 1011.4 | |
| 20260507013032 | 60 | 125 | 0.0 | 1.0 | 0.00 | 0.00 | 0.00 | 86 | 1011.5 |
| 20260507012023 | 60 | 0.0 | 0.0 | 0.00 | 0.00 | 0.00 | 85 | 1011.2 | |
| 20260507011057 | 61 | 0.0 | 0.0 | 0.00 | 0.00 | 0.00 | 83 | 1011.3 | |
| 20260507010024 | 61 | 0.0 | 0.0 | 0.00 | 0.00 | 0.00 | 80 | 1011.3 | |
| 20260507005032 | 62 | 108 | 0.0 | 1.0 | 0.00 | 0.00 | 0.00 | 78 | 1011.3 |
| 20260507004025 | 62 | 143 | 0.0 | 1.0 | 0.00 | 0.00 | 0.00 | 76 | 1011.1 |
| 20260507003051 | 62 | 110 | 1.0 | 5.0 | 0.00 | 0.00 | 0.00 | 75 | 1011.3 |
| 20260507002023 | 63 | 355 | 1.0 | 4.0 | 0.00 | 0.00 | 0.00 | 75 | 1011.2 |
| 20260507001052 | 63 | 78 | 0.0 | 1.0 | 0.00 | 0.00 | 0.00 | 74 | 1011.3 |
| 20260507000023 | 63 | 94 | 0.0 | 3.0 | 0.00 | 0.00 | 0.00 | 74 | 1011.5 |
| 20260506235037 | 63 | 143 | 0.0 | 4.0 | 0.00 | 0.00 | 0.00 | 72 | 1011.5 |
| 20260506234024 | 64 | 77 | 0.0 | 5.0 | 0.00 | 0.00 | 0.00 | 70 | 1011.5 |
| 20260506233032 | 64 | 26 | 1.0 | 8.0 | 0.00 | 0.00 | 0.00 | 69 | 1011.5 |
| 20260506232024 | 64 | 80 | 1.0 | 3.0 | 0.00 | 0.00 | 0.00 | 70 | 1011.6 |
| 20260506231032 | 64 | 202 | 2.0 | 9.0 | 0.00 | 0.00 | 0.00 | 71 | 1011.5 |
| 20260506230032 | 63 | 97 | 0.0 | 1.0 | 0.00 | 0.00 | 0.00 | 69 | 1011.6 |
| 20260506225033 | 63 | 127 | 0.0 | 1.0 | 0.00 | 0.00 | 0.00 | 68 | 1011.5 |
| 20260506224024 | 63 | 91 | 0.0 | 1.0 | 0.00 | 0.00 | 0.00 | 68 | 1011.5 |
| 20260506223032 | 63 | 96 | 0.0 | 1.0 | 0.00 | 0.00 | 0.00 | 68 | 1011.4 |
| 20260506222028 | 63 | 91 | 0.0 | 1.0 | 0.00 | 0.00 | 0.00 | 68 | 1011.1 |
| 20260506221034 | 62 | 81 | 0.0 | 1.0 | 0.00 | 0.00 | 0.00 | 69 | 1011.2 |
| 20260506220033 | 62 | 0.0 | 0.0 | 0.00 | 0.00 | 0.00 | 70 | 1011.1 | |
| 20260506215032 | 63 | 0.0 | 0.0 | 0.00 | 0.00 | 0.00 | 69 | 1011.0 | |
| 20260506214053 | 64 | 0.0 | 0.0 | 0.00 | 0.00 | 0.00 | 67 | 1011.1 | |
| 20260506213033 | 64 | 268 | 0.0 | 1.0 | 0.00 | 0.00 | 0.00 | 65 | 1011.2 |
| 20260506212024 | 65 | 0.0 | 0.0 | 0.00 | 0.00 | 0.00 | 64 | 1011.3 | |
| 20260506211038 | 66 | 91 | 0.0 | 1.0 | 0.00 | 0.00 | 0.00 | 62 | 1011.3 |
| 20260506210044 | 67 | 0.0 | 0.0 | 0.00 | 0.00 | 0.00 | 61 | 1011.0 | |
| 20260506205032 | 67 | 62 | 0.0 | 3.0 | 0.00 | 0.00 | 0.00 | 60 | 1010.9 |
| 20260506204025 | 66 | 30 | 0.0 | 4.0 | 0.00 | 0.00 | 0.00 | 59 | 1010.9 |
| 20260506203032 | 65 | 90 | 1.0 | 3.0 | 0.00 | 0.00 | 0.00 | 60 | 1010.9 |
| 20260506202033 | 61 | 152 | 0.0 | 3.0 | 0.00 | 0.00 | 0.00 | 65 | 1010.7 |
| 20260506201033 | 61 | 0.0 | 0.0 | 0.00 | 0.00 | 0.00 | 65 | 1010.4 | |
| 20260506200024 | 61 | 0.0 | 0.0 | 0.00 | 0.00 | 0.00 | 65 | 1010.4 | |
| 20260506195032 | 61 | 0.0 | 0.0 | 0.00 | 0.00 | 0.00 | 64 | 1010.5 | |
| 20260506194024 | 62 | 0.0 | 0.0 | 0.00 | 0.00 | 0.00 | 64 | 1010.5 | |
| 20260506193032 | 63 | 0.0 | 0.0 | 0.00 | 0.00 | 0.00 | 62 | 1010.4 | |
| 20260506192025 | 64 | 0.0 | 0.0 | 0.00 | 0.00 | 0.00 | 60 | 1010.5 | |
| 20260506191032 | 65 | 0.0 | 0.0 | 0.00 | 0.00 | 0.00 | 58 | 1010.3 | |
| 20260506190024 | 66 | 0.0 | 0.0 | 0.00 | 0.00 | 0.00 | 56 | 1010.3 | |
| 20260506185053 | 67 | 0.0 | 0.0 | 0.00 | 0.00 | 0.00 | 54 | 1010.1 | |
| 20260506184024 | 68 | 116 | 0.0 | 3.0 | 0.00 | 0.00 | 0.00 | 53 | 1010.1 |
| 20260506183033 | 69 | 118 | 0.0 | 1.0 | 0.00 | 0.00 | 0.00 | 51 | 1009.8 |
| 20260506182024 | 70 | 116 | 0.0 | 1.0 | 0.00 | 0.00 | 0.00 | 48 | 1009.9 |
| 20260506181032 | 71 | 184 | 0.0 | 3.0 | 0.00 | 0.00 | 0.00 | 47 | 1009.9 |
| 20260506180044 | 72 | 125 | 0.0 | 1.0 | 0.00 | 0.00 | 0.00 | 46 | 1009.7 |
| 20260506175033 | 72 | 119 | 0.0 | 3.0 | 0.00 | 0.00 | 0.00 | 45 | 1009.8 |
| 20260506174044 | 73 | 116 | 0.0 | 1.0 | 0.00 | 0.00 | 0.00 | 44 | 1009.7 |
| 20260506173038 | 74 | 143 | 1.0 | 3.0 | 0.00 | 0.00 | 0.00 | 43 | 1009.8 |
| 20260506172024 | 75 | 153 | 1.0 | 4.0 | 0.00 | 0.00 | 0.00 | 42 | 1009.7 |
| 20260506171032 | 75 | 151 | 2.0 | 6.0 | 0.00 | 0.00 | 0.00 | 41 | 1009.7 |
| 20260506170024 | 75 | 158 | 1.0 | 6.0 | 0.00 | 0.00 | 0.00 | 40 | 1009.7 |
| 20260506165058 | 76 | 175 | 1.0 | 4.0 | 0.00 | 0.00 | 0.00 | 39 | 1009.7 |
| 20260506164033 | 76 | 158 | 1.0 | 4.0 | 0.00 | 0.00 | 0.00 | 38 | 1009.6 |
| 20260506163032 | 77 | 163 | 1.0 | 6.0 | 0.00 | 0.00 | 0.00 | 38 | 1009.6 |
| 20260506162046 | 77 | 146 | 2.0 | 6.0 | 0.00 | 0.00 | 0.00 | 37 | 1009.7 |
| 20260506161052 | 78 | 137 | 2.0 | 5.0 | 0.00 | 0.00 | 0.00 | 36 | 1009.8 |
| 20260506160024 | 78 | 191 | 3.0 | 10.0 | 0.00 | 0.00 | 0.00 | 35 | 1009.9 |
| 20260506155032 | 79 | 168 | 3.0 | 8.0 | 0.00 | 0.00 | 0.00 | 35 | 1009.8 |
| 20260506154104 | 79 | 134 | 3.0 | 8.0 | 0.00 | 0.00 | 0.00 | 35 | 1009.8 |
| 20260506153032 | 78 | 150 | 2.0 | 8.0 | 0.00 | 0.00 | 0.00 | 37 | 1009.8 |
| 20260506152026 | 79 | 149 | 2.0 | 6.0 | 0.00 | 0.00 | 0.00 | 36 | 1010.0 |
| 20260506151032 | 80 | 162 | 3.0 | 8.0 | 0.00 | 0.00 | 0.00 | 35 | 1010.0 |
| 20260506150024 | 80 | 177 | 3.0 | 9.0 | 0.00 | 0.00 | 0.00 | 35 | 1010.1 |
| 20260506145038 | 79 | 148 | 3.0 | 9.0 | 0.00 | 0.00 | 0.00 | 36 | 1010.1 |
| 20260506144045 | 79 | 171 | 4.0 | 11.0 | 0.00 | 0.00 | 0.00 | 35 | 1010.2 |
| 20260506143033 | 80 | 166 | 4.0 | 11.0 | 0.00 | 0.00 | 0.00 | 35 | 1010.2 |
| 20260506142033 | 80 | 158 | 2.0 | 5.0 | 0.00 | 0.00 | 0.00 | 35 | 1010.2 |
| 20260506141033 | 80 | 185 | 3.0 | 10.0 | 0.00 | 0.00 | 0.00 | 35 | 1010.4 |
| 20260506140145 | 80 | 179 | 3.0 | 9.0 | 0.00 | 0.00 | 0.00 | 35 | 1010.3 |
| 20260506135038 | 79 | 155 | 3.0 | 6.0 | 0.00 | 0.00 | 0.00 | 36 | 1010.4 |
| 20260506134025 | 80 | 157 | 3.0 | 9.0 | 0.00 | 0.00 | 0.00 | 36 | 1010.5 |
| 20260506133017 | 80 | 172 | 4.0 | 11.0 | 0.00 | 0.00 | 0.00 | 36 | 1010.7 |
| 20260506132026 | 78 | 149 | 4.0 | 9.0 | 0.00 | 0.00 | 0.00 | 38 | 1010.7 |
| 20260506131032 | 79 | 142 | 3.0 | 6.0 | 0.00 | 0.00 | 0.00 | 37 | 1010.8 |
| 20260506130044 | 81 | 157 | 3.0 | 10.0 | 0.00 | 0.00 | 0.00 | 35 | 1010.9 |
| 20260506125033 | 79 | 172 | 4.0 | 10.0 | 0.00 | 0.00 | 0.00 | 37 | 1011.0 |
| 20260506124025 | 79 | 159 | 3.0 | 8.0 | 0.00 | 0.00 | 0.00 | 36 | 1011.1 |
| 20260506123033 | 78 | 165 | 3.0 | 8.0 | 0.00 | 0.00 | 0.00 | 37 | 1011.2 |
| 20260506122025 | 79 | 172 | 3.0 | 8.0 | 0.00 | 0.00 | 0.00 | 37 | 1011.3 |
| 20260506121032 | 79 | 155 | 3.0 | 9.0 | 0.00 | 0.00 | 0.00 | 37 | 1011.3 |
| 20260506120024 | 77 | 186 | 3.0 | 11.0 | 0.00 | 0.00 | 0.00 | 39 | 1011.4 |
| 20260506115016 | 77 | 188 | 4.0 | 8.0 | 0.00 | 0.00 | 0.00 | 38 | 1011.3 |
| 20260506114025 | 79 | 151 | 3.0 | 9.0 | 0.00 | 0.00 | 0.00 | 36 | 1011.4 |
| 20260506113017 | 78 | 150 | 2.0 | 5.0 | 0.00 | 0.00 | 0.00 | 37 | 1011.5 |
| 20260506112025 | 78 | 127 | 2.0 | 8.0 | 0.00 | 0.00 | 0.00 | 37 | 1011.5 |
| 20260506111033 | 78 | 163 | 3.0 | 10.0 | 0.00 | 0.00 | 0.00 | 38 | 1011.5 |
| 20260506110026 | 77 | 131 | 2.0 | 6.0 | 0.00 | 0.00 | 0.00 | 40 | 1011.7 |
| 20260506105037 | 76 | 148 | 2.0 | 6.0 | 0.00 | 0.00 | 0.00 | 39 | 1011.7 |
| 20260506104033 | 76 | 176 | 2.0 | 8.0 | 0.00 | 0.00 | 0.00 | 41 | 1011.8 |
| 20260506103033 | 75 | 128 | 3.0 | 9.0 | 0.00 | 0.00 | 0.00 | 41 | 1011.8 |
| 20260506102025 | 75 | 170 | 4.0 | 9.0 | 0.00 | 0.00 | 0.00 | 42 | 1012.0 |
| 20260506101033 | 75 | 143 | 4.0 | 9.0 | 0.00 | 0.00 | 0.00 | 42 | 1012.0 |
| 20260506100025 | 73 | 173 | 3.0 | 10.0 | 0.00 | 0.00 | 0.00 | 44 | 1012.1 |
| 20260506095053 | 73 | 157 | 4.0 | 9.0 | 0.00 | 0.00 | 0.00 | 45 | 1012.0 |
| 20260506094145 | 74 | 156 | 2.0 | 5.0 | 0.00 | 0.00 | 0.00 | 44 | 1012.0 |
| 20260506093033 | 74 | 171 | 3.0 | 8.0 | 0.00 | 0.00 | 0.00 | 44 | 1011.9 |
| 20260506092025 | 74 | 151 | 4.0 | 9.0 | 0.00 | 0.00 | 0.00 | 44 | 1012.0 |
| 20260506091017 | 74 | 173 | 5.0 | 10.0 | 0.00 | 0.00 | 0.00 | 44 | 1011.8 |
| 20260506090053 | 73 | 163 | 4.0 | 13.0 | 0.00 | 0.00 | 0.00 | 45 | 1011.9 |
| 20260506085017 | 73 | 150 | 3.0 | 9.0 | 0.00 | 0.00 | 0.00 | 46 | 1011.7 |
| 20260506084025 | 72 | 155 | 3.0 | 8.0 | 0.00 | 0.00 | 0.00 | 47 | 1011.9 |
| 20260506083018 | 72 | 194 | 2.0 | 8.0 | 0.00 | 0.00 | 0.00 | 46 | 1011.8 |
| 20260506082025 | 71 | 175 | 4.0 | 10.0 | 0.00 | 0.00 | 0.00 | 48 | 1011.9 |
| 20260506081033 | 70 | 152 | 3.0 | 6.0 | 0.00 | 0.00 | 0.00 | 49 | 1011.9 |
| 20260506073054 | 68 | 198 | 2.0 | 8.0 | 0.00 | 0.00 | 0.00 | 53 | 1012.0 |
| 20260506072025 | 68 | 147 | 2.0 | 8.0 | 0.00 | 0.00 | 0.00 | 53 | 1012.0 |
| 20260506071037 | 67 | 173 | 2.0 | 5.0 | 0.00 | 0.00 | 0.00 | 54 | 1011.9 |
| 20260506070113 | 67 | 166 | 2.0 | 8.0 | 0.00 | 0.00 | 0.00 | 55 | 1012.1 |